Regional Weather Roundup
Issued by NWS

Home | Current Version | Previous Version | Text Only | Print | Product List | Glossary Off
Versions: 1 2 3 4 5 6 7 8 9 10 11 12 13 14 15 16 17 18 19 20 21 22 23 24 25 26 27 28 29 30 31 32 33 34 35 36 37 38 39 40 41 42 43 44 45 46 47 48 49 50

000
ASUS45 KTFX 220804
RWRMT
MONTANA HOURLY WEATHER ROUNDUP
NATIONAL WEATHER SERVICE GREAT FALLS MT
204 AM MDT FRI AUG 22 2014

NOTE: "FAIR" INDICATES FEW OR NO CLOUDS BELOW 12000 FEET WITH NO
SIGNIFICANT WEATHER AND/OR OBSTRUCTIONS TO VISIBILITY.

* THESE STATIONS ARE NOT UNDER NWS QUALITY CONTROL. THEY DO NOT
   REPORT WEATHER SUCH AS PRECIPITATION OR FOG.

MTZ001>007-043-220900-
WEST OF THE DIVIDE
CITY           SKY/WX    TMP DP  RH WIND       PRES   REMARKS
KALISPELL      CLOUDY    59  45  60 NE12      30.05F
MISSOULA       CLOUDY    61  48  62 E15       30.03F
BUTTE          LGT RAIN  50  48  93 VRB3      30.13F
MULLAN PASS    CLOUDY    48  45  89 SE6       30.08S
* ESSEX        N/A       54  43  67 SE4G9      N/A
* LINCOLN      N/A       52  49  90 E3G8       N/A
* LOOKOUT PASS N/A       51  47  86 E1         N/A
* POLSON       N/A       52  48  86 N1         N/A
* RONAN APT    MOCLDY    55  52  90 N/A        N/A
* SEELEY LAKE  N/A       50  49  96 NE2        N/A
* THOMP F APT  CLOUDY    47  45  93 E1G7       N/A
* YAAK HILL    N/A       56  52  87 E2         N/A
$$

MTZ008-052>055-220900-
SOUTHWEST MONTANA
CITY           SKY/WX    TMP DP  RH WIND       PRES   REMARKS
BOZEMAN        CLOUDY    54  52  93 W10       30.12R
DILLON         CLOUDY    52  48  86 NE16      30.11F
W YELLOWSTONE  CLOUDY    46  46 100 SW3       30.19R
* THREE FORKS  CLOUDY    55  36  49 NW8        N/A
* BOULDER HILL N/A       48  44  86 S2         N/A
* MONIDA PASS  N/A       47  47 100 SE11       N/A
* RAYNOLDS PAS N/A       47  28  48 SE9G16     N/A
* WHITEHALL    N/A       53  52  96 S1G9       N/A
* WISE RIVER   N/A       50  48  93 S10G19     N/A
$$

MTZ009>010-012-014-046-048-049-054-220900-
EAST SLOPES AND CENTRAL MONTANA
CITY           SKY/WX    TMP DP  RH WIND       PRES   REMARKS
CUT BANK       CLOUDY    52  48  86 N6        30.18S
GREAT FALLS    CLOUDY    52  48  86 NE10      30.14S
HELENA         LGT RAIN  55  52  90 W7        30.10F
MALMSTROM AFB  CLOUDY    52  50  93 NE10      30.16R
* CONRAD       CLOUDY    52  52 100 N/A        N/A
* DEARBORN     N/A       54  50  86 N12        N/A
* EAST GLACIER N/A       46  45  96 E6         N/A
* MONARCH      N/A       48  45  89 S2         N/A
* PENDROY      N/A       49  49 100 NE8        N/A
* ROGERS PASS  N/A       47  46  96 SE2        N/A
* SAINT MARY   N/A       47  45  93 S2         N/A
* SWEET GRASS  N/A       50  50 100 N9         N/A
$$

MTZ011-013-016-021-035-040-045-047-050-051-220900-
NORTH CENTRAL MONTANA
CITY           SKY/WX    TMP DP  RH WIND       PRES   REMARKS
HAVRE          CLOUDY    55  52  90 NE8       30.12F
LEWISTOWN      FOG       54  52  93 W7        30.14S VSB 3/4
* CHESTER      N/A       53  48  83 NE7G14     N/A
* DENTON       N/A       53  52  96 NW4        N/A
* GEYSER       N/A       52  50  93 SE7        N/A
* JUDITH GAP   N/A       52  52 100 N11        N/A
* LOMA         N/A       55  51  86 VRB9       N/A
$$

MTZ017>020-022>027-061-062-220900-
NORTHEAST MONTANA
CITY           SKY/WX    TMP DP  RH WIND       PRES   REMARKS
GLASGOW        CLOUDY    61  57  87 NE12      30.07S
GLENDIVE       CLOUDY    61  61 100 N3        30.06S
JORDAN         PTCLDY    59  57  93 W3        30.08R
SIDNEY         CLOUDY    63  61  93 N7        30.04S
WOLF POINT     LGT RAIN  63  57  81 CALM      30.06R
* BEAVER HILL  N/A       60  59  97 N/A        N/A
* CIRCLE       N/A       59  57  93 N/A        N/A
* LINDSAY DVD  N/A       58  57  96 NW2        N/A
* SACO         N/A       57  55  93 N2         N/A
$$

MTZ028>042-056>058-220900-
SOUTHCENTRAL AND SOUTHEAST MONTANA
CITY           SKY/WX    TMP DP  RH WIND       PRES   REMARKS
BAKER          LGT RAIN  61  59  93 E5        30.05F
BILLINGS       CLOUDY    55  52  90 N5        30.10F
LIVINGSTON     LGT RAIN  55  52  90 E13       30.11S
MILES CITY     CLOUDY    61  57  87 W6        30.06R
* LAUREL APT   CLOUDY    54  50  86 N/A        N/A
* ROUNDUP APT  CLOUDY    54  50  86 N/A        N/A
* ALZADA       N/A       60  59  97 NE2        N/A
* HYSHAM       N/A       56  53  90 NW1        N/A
* LAME DEER    N/A       56  55  96 VRB5       N/A
* REED POINT   N/A       56  54  93 W1         N/A
* ROSCOE HILL  N/A       52  49  90 NE2        N/A
$$

REGIONAL REPORTS...DAKOTAS
CITY           SKY/WX    TMP DP  RH WIND       PRES   REMARKS
WILLISTON      CLOUDY    63  57  81 NE7       30.04R
DICKINSON      LGT RAIN  63  61  93 NE3       30.01R
BEACH          N/A       61  61 100 CALM      30.05S
CROSBY         CLOUDY    57  57 100 N3        30.07R
TIOGA          FOG       59  59 100 NE15      30.08R
WATFORD CITY   MOCLDY    59  59 100 N5        30.02R
BISMARCK       LGT RAIN  66  64  93 W7        30.00R
GRAND FORKS    MOCLDY    68  66  93 N6        29.88S
FARGO          FOG       64  64 100 NE3       29.88S VSB M1/4
BUFFALO SD     CLOUDY    61  59  93 E13       29.98F
RAPID CITY     MOCLDY    63  61  93 N16       30.01R
$$

REGIONAL REPORTS...WYOMING/IDAHO/WASHINGTON
CITY           SKY/WX    TMP DP  RH WIND       PRES   REMARKS
GILLETTE       CLOUDY    57  54  90 N8        30.11S
SHERIDAN       CLOUDY    59  54  84 W6        30.11F
CODY           CLOUDY    54  50  86 S5        30.14S
YELLOWSTONE LA CLOUDY    43  43 100 CALM      30.27F
SALMON         CLOUDY    55  50  83 N5        30.02R
MULLAN PASS    CLOUDY    48  45  89 SE6       30.08S
SAND POINT     CLOUDY    55  52  90 NE14      29.98F
SPOKANE        MOCLDY    61  52  72 NE6       29.93S

$$




USA.gov is the U.S. government's official web portal to all federal, state and local government web resources and services.